Bergman, AR

7:26 PM CDT on August 25, 2016 (GMT -0500)
Boone County

Weather History for KHRO - November, 2012

Change the Weather History Date:

Friday, November 9, 2012

  Actual Average Record
Temperature  
Mean Temperature 62 °F 51 °F  
Max Temperature 72 °F 62 °F 84 °F (2006)
Min Temperature 52 °F 41 °F 15 °F (1991)
Degree Days  
Heating Degree Days 3 14  
Month to date heating degree days 100 113  
Since 1 July heating degree days 394 378  
Cooling Degree Days 0 0  
Month to date cooling degree days 0 0  
Year to date cooling degree days 1959 1412  
Growing Degree Days 12 (Base 50)    
Moisture  
Dew Point 49 °F    
Average Humidity 66    
Maximum Humidity 78    
Minimum Humidity 53    
Precipitation  
Precipitation 0.00 in 0.15 in 1.55 in (1994)
Month to date precipitation 0.04 1.30  
Year to date precipitation 26.36 38.01  
Snow  
Snow 0.00 in 0.00 in 2.00 in (1892)
Month to date snowfall 0.0 0.0  
Since 1 July snowfall 0.0 0.1  
Since 1 September snowfall 0.0 0.1  
Snow Depth 0.00 in    
Sea Level Pressure  
Sea Level Pressure 29.99 in    
Wind  
Wind Speed 13 mph (SSE)    
Max Wind Speed 20 mph    
Max Gust Speed 30 mph    
Visibility 10 miles    
Events      
T = Trace of Precipitation, MM = Missing Value Source: NWS Daily Summary

Daily Weather History Graph

Daily Weather History Graph

Search for Another Location

Airport or City:

Trip Planner

Search our weather history database for the weather conditions in past years. The results will help you decide how hot, cold, wet, or windy it might be!

Date:

Astronomy

Nov. 09, 2012 Rise Set
Actual Time 6:44 AM CST 5:08 PM CST
Civil Twilight 6:16 AM CST 5:35 PM CST
Nautical Twilight 5:46 AM CST 6:06 PM CST
Astronomical Twilight 5:15 AM CST 6:36 PM CST
Moon 1:51 AM CST (11/9) 2:15 PM CST (11/9)
Length of Visible Light 11h 18m
Length of Day
10h 24m
Waning Crescent, 23% of the Moon is Illuminated
Nov 9
Waning Crescent
Nov 13
New
Nov 20
First Quarter
Nov 28
Full
Dec 6
Last Quarter

Hourly Weather History & Observations

Time (CST) Temp. Dew Point Humidity Pressure Visibility Wind Dir Wind Speed Gust Speed Precip Events Conditions
12:53 AM 52.0 °F 39.9 °F 63% 30.03 in 10.0 mi SSE 12.7 mph - N/A   Clear
1:53 AM 52.0 °F 39.9 °F 63% 30.01 in 10.0 mi SSE 11.5 mph - N/A   Clear
2:53 AM 52.0 °F 41.0 °F 66% 30.02 in 10.0 mi SE 8.1 mph - N/A   Clear
3:53 AM 53.1 °F 41.0 °F 64% 30.01 in 10.0 mi SE 11.5 mph - N/A   Clear
4:53 AM 52.0 °F 41.0 °F 66% 30.03 in 10.0 mi SE 10.4 mph - N/A   Clear
5:53 AM 53.1 °F 43.0 °F 69% 30.02 in 10.0 mi SE 11.5 mph - N/A   Clear
6:53 AM 53.1 °F 44.1 °F 71% 30.04 in 10.0 mi SSE 13.8 mph - N/A   Clear
7:53 AM 55.9 °F 46.9 °F 72% 30.05 in 10.0 mi SSE 11.5 mph - N/A   Clear
8:53 AM 61.0 °F 50.0 °F 67% 30.05 in 10.0 mi SE 11.5 mph - N/A   Clear
9:53 AM 64.9 °F 53.1 °F 65% 30.05 in 10.0 mi SSE 11.5 mph 18.4 mph N/A   Partly Cloudy
10:53 AM 68.0 °F 54.0 °F 61% 30.04 in 10.0 mi South 12.7 mph - N/A   Clear
11:53 AM 70.0 °F 55.0 °F 59% 30.01 in 10.0 mi SSE 13.8 mph 18.4 mph N/A   Clear
12:53 PM 70.0 °F 54.0 °F 57% 29.97 in 10.0 mi SSE 11.5 mph 19.6 mph N/A   Clear
1:53 PM 71.1 °F 54.0 °F 55% 29.96 in 10.0 mi SSE 16.1 mph 20.7 mph N/A   Clear
2:53 PM 71.1 °F 54.0 °F 55% 29.95 in 10.0 mi SSE 17.3 mph 21.9 mph N/A   Clear
3:53 PM 69.1 °F 55.0 °F 61% 29.95 in 10.0 mi South 15.0 mph 21.9 mph N/A   Clear
4:53 PM 66.0 °F 54.0 °F 65% 29.95 in 10.0 mi SSE 12.7 mph 19.6 mph N/A   Clear
5:53 PM 63.0 °F 54.0 °F 72% 29.95 in 10.0 mi SE 11.5 mph - N/A   Clear
6:53 PM 62.1 °F 53.1 °F 72% 29.96 in 10.0 mi SE 12.7 mph - N/A   Clear
7:53 PM 61.0 °F 53.1 °F 75% 29.97 in 10.0 mi SE 10.4 mph - N/A   Clear
8:53 PM 60.1 °F 52.0 °F 75% 29.97 in 10.0 mi SSE 6.9 mph - N/A   Clear
9:53 PM 63.0 °F 50.0 °F 63% 29.96 in 10.0 mi South 12.7 mph 19.6 mph N/A   Clear
10:53 PM 64.0 °F 48.9 °F 58% 29.96 in 10.0 mi South 16.1 mph 29.9 mph N/A   Clear
11:53 PM 63.0 °F 48.9 °F 60% 29.95 in 10.0 mi South 18.4 mph 27.6 mph N/A   Clear